[[{"header":{"parameterUnit":"m.s-1","parameterCategory":1,"la1":30.2991,"la2":30.254,"lo1":-89.0895,"lo2":-89.0444,"dy":0.0017,"dx":0.0017,"nx":28,"ny":28,"refTime":"2023-10-15T21:00:00:Z","depth":0,"parameterNumber":2,"parameterNumberName":"U-component_of_WINDS"},"data":[0,0,0,0,0,0,0,0,0,0,0,0,0,0,0,0,0,0,0,0,0,0,0,0,0,0,0,0,0,0,0,0,0,0,0,0,0,0,0,0,0,0,0,0,0,0,0,0,0,0,0,0,0,0,0,0,0,0,0.5405,0.5405,0,0.5343,0.5342,0.5341,0.5338,0.5339,0.534,0.534,0.5274,0.5272,0.5269,0,0,0,0,0,0,0,0,0,0,0,0,0,0.5522,0.552,0.5405,0.5405,0.5404,0.5343,0.5342,0.5341,0.5338,0.5339,0.534,0.5341,0.5275,0.5272,0.5269,0,0,0,0,0,0,0,0,0,0,0,0,0,0.5466,0.5519,0.5406,0.5395,0.5394,0.5343,0.5342,0.5341,0.5338,0.5339,0.534,0.5341,0.5276,0.5272,0.5269,0.5223,0,0,0.5257,0.5256,0,0,0,0,0,0,0,0,0.547,0.5462,0.5397,0.5396,0.5394,0.5349,0.5359,0.5301,0.5338,0.5359,0.534,0.5342,0.5298,0.5293,0.5278,0.522,0.5217,0.5257,0.5255,0.5253,0.5252,0,0,0,0,0,0,0,0.5473,0.5465,0.5381,0.5397,0.5394,0.5393,0.5387,0.5348,0.5323,0.5357,0.5357,0.535,0.5297,0.5282,0.5277,0.5216,0.5257,0.5254,0.5251,0.525,0.5118,0.5117,0,0,0,0,0,0,0.548,0.5468,0.5383,0.5379,0.5435,0.539,0.5383,0.5363,0.5323,0.5318,0.5349,0.535,0.5288,0.5281,0.5274,0.5218,0.5253,0.525,0.5248,0.512,0.5118,0.5117,0,0,0,0,0,0,0.5482,0.5472,0.5385,0.5423,0.5412,0.5387,0.5364,0.5361,0.5345,0.5317,0.5312,0.5337,0.5288,0.528,0.5236,0.5216,0.5248,0.5245,0.5121,0.5119,0.5117,0.5107,0,0,0,0,0,0,0.5485,0.5473,0.5456,0.5423,0.541,0.5348,0.5363,0.5359,0.5339,0.534,0.5305,0.53,0.5288,0.5242,0.5233,0.5212,0.5242,0.5123,0.512,0.5118,0.5108,0.5104,0.5101,0,0,0,0,0,0.549,0.5454,0.5455,0.5444,0.5388,0.5347,0.534,0.5327,0.5338,0.532,0.5302,0.5302,0.522,0.5237,0.5227,0.5205,0.5124,0.5121,0.5118,0.511,0.5105,0.5101,0,0,0,0,0,0,0.5484,0.545,0.545,0.5403,0.5378,0.5347,0.5323,0.5322,0.5293,0.5295,0.528,0.5272,0.5229,0.5213,0.5232,0.5159,0.5173,0.5168,0.5171,0.5166,0.5162,0.5166,0.5239,0,0,0,0,0,0.5478,0.5448,0.542,0.5381,0.5369,0.5348,0.533,0.5323,0.5296,0.5285,0.5264,0.5237,0.5206,0.5185,0.5155,0.5107,0.5099,0.5087,0.5083,0.508,0.5075,0.5049,0.5042,0.5107,0.5107,0.5107,0,0,0.5464,0.5442,0.5423,0.538,0.5359,0.5328,0.5339,0.5306,0.5282,0.528,0.5237,0.5221,0.5191,0.5145,0.5124,0.513,0.5056,0.5076,0.5074,0.5071,0.5045,0.5039,0.5033,0.5105,0.5106,0.5106,0,0,0.5422,0.5403,0.5368,0.5348,0.5318,0.5305,0.5297,0.5266,0.5255,0.5213,0.521,0.5182,0.5129,0.5107,0.5089,0.5041,0.504,0.5032,0.5011,0.4985,0.498,0.4976,0.4958,0.4952,0.5027,0.5027,0.5027,0,0.5408,0.5361,0.5351,0.5317,0.5298,0.5296,0.5261,0.5242,0.5202,0.5189,0.5197,0.513,0.5109,0.5058,0.5047,0.5033,0.5023,0.5034,0.4982,0.4977,0.4973,0.4955,0.4949,0.5026,0.5027,0.5027,0.5027,0,0.5345,0.5313,0.5289,0.5252,0.5231,0.5197,0.5181,0.516,0.5155,0.5141,0.5098,0.5074,0.5039,0.5027,0.5021,0.4975,0.498,0.4985,0.4999,0.4966,0.4949,0.4943,0.5025,0.5026,0.5026,0.5026,0,0,0.5296,0.5255,0.5246,0.523,0.5197,0.5172,0.5138,0.5104,0.5086,0.506,0.5031,0.4987,0.4992,0.4971,0.4964,0.4942,0.4904,0.495,0.4949,0.4941,0.4851,0.4846,0.4839,0.4904,0.4903,0.4902,0.4854,0,0.525,0.5189,0.518,0.5127,0.5097,0.5095,0.5066,0.5042,0.5029,0.5002,0.4987,0.4955,0.4965,0.4953,0.4931,0.4914,0.4886,0.4917,0.4876,0.4875,0.4882,0.483,0.4824,0.478,0.4847,0.4846,0.4845,0,0.5187,0.516,0.5104,0.5076,0.5063,0.5037,0.5005,0.4979,0.4953,0.4945,0.4923,0.4919,0.4883,0.4901,0.4852,0.4873,0.4856,0.4846,0.4844,0.4838,0.4857,0.4822,0.4765,0.4758,0.4835,0.4836,0.4837,0,0.5155,0.5105,0.5065,0.5051,0.5018,0.4999,0.4984,0.4959,0.494,0.4913,0.49,0.4869,0.4851,0.4827,0.4815,0.4828,0.4766,0.4782,0.4758,0.4758,0.4743,0.4744,0.4681,0.4735,0.4735,0.4735,0.4735,0,0.5103,0.5068,0.505,0.5025,0.4987,0.4977,0.4939,0.4925,0.4903,0.4875,0.4872,0.4846,0.4832,0.4804,0.4794,0.4755,0.4747,0.4739,0.4737,0.4738,0.4739,0.4725,0.4728,0.4733,0.4734,0.4734,0.4734,0,0.5059,0.5046,0.5002,0.4975,0.4968,0.494,0.4917,0.4893,0.4881,0.4846,0.4837,0.4817,0.4784,0.477,0.4729,0.4723,0.4677,0.4678,0.4686,0.4685,0.4661,0.4663,0.4586,0.4575,0.4637,0.4637,0.4636,0,0.5026,0.5,0.497,0.4952,0.4937,0.4907,0.4888,0.4877,0.4857,0.4826,0.4805,0.4773,0.4746,0.4693,0.4675,0.4644,0.4643,0.4618,0.4638,0.4641,0.4641,0.4642,0.4639,0.4614,0.4613,0.4613,0.4612,0,0.4968,0.4963,0.4935,0.4906,0.4883,0.4859,0.4835,0.482,0.4806,0.4783,0.475,0.4729,0.4688,0.4656,0.4624,0.4608,0.4607,0.4607,0.4599,0.46,0.4605,0.4601,0.4675,0.4608,0.4608,0.4609,0.4609,0.4609,0.4928,0.4904,0.488,0.4849,0.4831,0.4809,0.4785,0.4771,0.4743,0.4709,0.4705,0.4669,0.4645,0.4602,0.4586,0.4557,0.4563,0.4553,0.455,0.4547,0.4545,0.4611,0.4552,0.4552,0.4552,0.4552,0.4552,0,0.4868,0.4853,0.4825,0.4793,0.4769,0.4772,0.4747,0.4726,0.4695,0.4672,0.4646,0.4608,0.4577,0.4558,0.4526,0.4507,0.4506,0.4499,0.4499,0.4496,0.4542,0.4551,0.4501,0.4501,0.4501,0.4501,0.4501,0.4501,0.4835,0.4795,0.4788,0.4739,0.4724,0.4689,0.4674,0.4654,0.4636,0.4594,0.4569,0.4557,0.4535,0.4502,0.4474,0.4469,0.4457,0.4449,0.4445,0.4487,0.4493,0.4498,0.4506,0.4447,0.4447,0.4401,0.4401,0.44]},{"header":{"parameterUnit":"m.s-1","parameterCategory":1,"la1":30.2991,"la2":30.254,"lo1":-89.0895,"lo2":-89.0444,"dy":0.0017,"dx":0.0017,"nx":28,"ny":28,"refTime":"2023-10-15T21:00:00:Z","depth":0,"parameterNumber":3,"parameterNumberName":"V-component_of_WINDS"},"data":[0,0,0,0,0,0,0,0,0,0,0,0,0,0,0,0,0,0,0,0,0,0,0,0,0,0,0,0,0,0,0,0,0,0,0,0,0,0,0,0,0,0,0,0,0,0,0,0,0,0,0,0,0,0,0,0,0,0,-7.2681,-7.2683,0,-7.2841,-7.2843,-7.2844,-7.2731,-7.2726,-7.2721,-7.2716,-7.2873,-7.2882,-7.2891,0,0,0,0,0,0,0,0,0,0,0,0,0,-7.2272,-7.228,-7.2681,-7.2683,-7.2685,-7.2841,-7.2843,-7.2845,-7.2732,-7.2725,-7.2719,-7.2714,-7.287,-7.2881,-7.2891,0,0,0,0,0,0,0,0,0,0,0,0,0,-7.2442,-7.2283,-7.2681,-7.2647,-7.2646,-7.284,-7.2843,-7.2845,-7.2733,-7.2725,-7.2718,-7.2711,-7.2867,-7.288,-7.2893,-7.3126,0,0,-7.2934,-7.2939,0,0,0,0,0,0,0,0,-7.2433,-7.2457,-7.265,-7.265,-7.2649,-7.2758,-7.2756,-7.2939,-7.2735,-7.27,-7.2716,-7.2707,-7.2841,-7.2856,-7.2902,-7.3134,-7.3141,-7.2935,-7.2943,-7.2949,-7.2952,0,0,0,0,0,0,0,-7.2421,-7.245,-7.2744,-7.2653,-7.2652,-7.2622,-7.2638,-7.279,-7.281,-7.2702,-7.2694,-7.2715,-7.2839,-7.2889,-7.2905,-7.3143,-7.2934,-7.2946,-7.2954,-7.296,-7.3574,-7.3582,0,0,0,0,0,0,-7.2413,-7.2441,-7.2739,-7.2749,-7.252,-7.2636,-7.2654,-7.2731,-7.2808,-7.2813,-7.2721,-7.2709,-7.287,-7.2889,-7.291,-7.3189,-7.2948,-7.2961,-7.2969,-7.3566,-7.3576,-7.3585,0,0,0,0,0,0,-7.2405,-7.2441,-7.2732,-7.2593,-7.2628,-7.2651,-7.2738,-7.2738,-7.2788,-7.2823,-7.2825,-7.277,-7.2865,-7.2891,-7.3074,-7.3193,-7.2967,-7.2979,-7.3556,-7.3569,-7.358,-7.3749,0,0,0,0,0,0,-7.2394,-7.2439,-7.2529,-7.2596,-7.2636,-7.2896,-7.2746,-7.2746,-7.2813,-7.2798,-7.2869,-7.2874,-7.2861,-7.3055,-7.3087,-7.3207,-7.2989,-7.3545,-7.3562,-7.3576,-7.3733,-7.3765,-7.3793,0,0,0,0,0,-7.2379,-7.2569,-7.2534,-7.2571,-7.275,-7.2903,-7.2926,-7.2909,-7.2823,-7.2913,-7.2935,-7.2871,-7.3174,-7.3074,-7.311,-7.3236,-7.3538,-7.3557,-7.3575,-7.3719,-7.3759,-7.3793,0,0,0,0,0,0,-7.2513,-7.2577,-7.2539,-7.2756,-7.2826,-7.2884,-7.2997,-7.2952,-7.3046,-7.3028,-7.3001,-7.3019,-7.321,-7.3241,-7.3128,-7.3465,-7.3342,-7.3369,-7.3439,-7.3477,-7.3507,-7.3496,-7.3001,0,0,0,0,0,-7.2568,-7.269,-7.2738,-7.2925,-7.2962,-7.2974,-7.304,-7.3022,-7.3091,-7.312,-7.3155,-7.3223,-7.3334,-7.3407,-7.351,-7.3736,-7.3749,-7.384,-7.387,-7.3895,-7.3919,-7.404,-7.4081,-7.3646,-7.3646,-7.3646,0,0,-7.2683,-7.2732,-7.281,-7.2953,-7.3004,-7.3129,-7.2999,-7.3137,-7.3228,-7.3139,-7.3315,-7.3344,-7.3418,-7.3624,-7.3716,-7.3655,-7.4042,-7.3919,-7.3938,-7.3949,-7.4064,-7.4105,-7.4141,-7.3659,-7.3657,-7.3655,0,0,-7.2955,-7.3006,-7.3167,-7.3222,-7.3302,-7.3309,-7.3348,-7.3414,-7.343,-7.3606,-7.3542,-7.365,-7.3841,-7.3896,-7.395,-7.4244,-7.4189,-7.4278,-7.4437,-7.4556,-7.459,-7.462,-7.4725,-7.4763,-7.4301,-7.4302,-7.4302,0,-7.3087,-7.3275,-7.3255,-7.3398,-7.3462,-7.339,-7.3552,-7.3605,-7.3715,-7.376,-7.369,-7.3929,-7.3973,-7.4191,-7.4263,-7.4309,-7.4351,-7.427,-7.4587,-7.4617,-7.4645,-7.4745,-7.4785,-7.4312,-7.4311,-7.431,-7.4309,0,-7.3432,-7.3563,-7.3684,-7.3794,-7.3871,-7.4023,-7.4025,-7.4105,-7.408,-7.4094,-7.4274,-7.4325,-7.4438,-7.4488,-7.4463,-7.4703,-7.4662,-7.4591,-7.4466,-7.4697,-7.4791,-7.4829,-7.4327,-7.4323,-7.432,-7.4318,0,0,-7.3794,-7.3892,-7.3937,-7.3986,-7.4069,-7.4169,-7.4317,-7.443,-7.4499,-7.4577,-7.4699,-7.4863,-7.4798,-7.4858,-7.4839,-7.4944,-7.5174,-7.4859,-7.486,-7.4916,-7.544,-7.5494,-7.5539,-7.5137,-7.5145,-7.515,-7.5434,0,-7.4071,-7.4332,-7.4319,-7.4562,-7.4683,-7.4615,-7.4744,-7.4808,-7.4825,-7.4928,-7.4945,-7.5062,-7.4966,-7.5003,-7.5103,-7.5125,-7.5278,-7.5104,-7.525,-7.5256,-7.5235,-7.5587,-7.5645,-7.591,-7.547,-7.5476,-7.5481,0,-7.443,-7.4523,-7.4779,-7.4845,-7.4895,-7.5012,-7.5114,-7.5213,-7.5284,-7.5289,-7.5358,-7.5321,-7.5469,-7.5341,-7.5543,-7.5425,-7.5483,-7.5503,-7.5513,-7.5526,-7.5383,-7.5611,-7.5994,-7.6034,-7.5538,-7.5533,-7.5529,0,-7.4669,-7.4857,-7.5035,-7.5079,-7.516,-7.5244,-7.5281,-7.5345,-7.5413,-7.5501,-7.5545,-7.5649,-7.5706,-7.5786,-7.5778,-7.5686,-7.5984,-7.5855,-7.5991,-7.5992,-7.6058,-7.6054,-7.6457,-7.6095,-7.6094,-7.6094,-7.6093,0,-7.498,-7.514,-7.5144,-7.5253,-7.543,-7.5412,-7.5586,-7.5614,-7.5671,-7.5783,-7.573,-7.5836,-7.5819,-7.5925,-7.5919,-7.6088,-7.6114,-7.612,-7.6117,-7.6126,-7.6125,-7.6164,-7.6146,-7.6104,-7.6102,-7.61,-7.6098,0,-7.5277,-7.5286,-7.5476,-7.5538,-7.5557,-7.5685,-7.5736,-7.5839,-7.5851,-7.5994,-7.6026,-7.6045,-7.6167,-7.6167,-7.6305,-7.6301,-7.6508,-7.6483,-7.6486,-7.6481,-7.6617,-7.6605,-7.706,-7.7119,-7.6719,-7.6722,-7.6725,0,-7.5476,-7.5598,-7.5673,-7.5746,-7.5789,-7.5907,-7.5977,-7.5963,-7.6039,-7.6129,-7.6221,-7.6338,-7.6431,-7.6628,-7.6653,-7.6758,-7.6736,-7.6888,-7.6751,-7.6756,-7.6738,-7.6732,-7.6744,-7.6915,-7.6919,-7.6923,-7.6926,0,-7.5828,-7.5827,-7.5931,-7.6039,-7.6125,-7.6208,-7.6284,-7.6346,-7.634,-7.6427,-7.6553,-7.6625,-7.6767,-7.6884,-7.6986,-7.7021,-7.6974,-7.6969,-7.7006,-7.7016,-7.7013,-7.7017,-7.6559,-7.6958,-7.6955,-7.6953,-7.6951,-7.695,-7.6082,-7.6187,-7.6258,-7.6376,-7.6433,-7.6505,-7.6606,-7.6631,-7.6736,-7.6853,-7.6837,-7.6977,-7.7043,-7.7176,-7.722,-7.7328,-7.7274,-7.7328,-7.7342,-7.7355,-7.7371,-7.6996,-7.7346,-7.7345,-7.7344,-7.7343,-7.7343,0,-7.6432,-7.6474,-7.6583,-7.6693,-7.6786,-7.6734,-7.6816,-7.6897,-7.7021,-7.7089,-7.7182,-7.7326,-7.7439,-7.7473,-7.7581,-7.7661,-7.7641,-7.769,-7.7684,-7.7693,-7.7412,-7.7369,-7.7704,-7.7704,-7.7704,-7.7704,-7.7704,-7.7703,-7.6625,-7.68,-7.6807,-7.701,-7.705,-7.7188,-7.7239,-7.7306,-7.7359,-7.7523,-7.7618,-7.764,-7.7694,-7.7806,-7.7907,-7.7913,-7.7956,-7.8014,-7.8012,-7.7749,-7.7713,-7.7678,-7.7638,-7.8023,-7.8024,-7.8284,-7.8286,-7.8288]}]]